This demonstration page uses our WeatherBlox Daily Observations layout. Learn more.

Left ArrowRight Arrow

Hourly Observations for December 26, 2019

Temp ( °F °C ) Dew Point ( °F °C ) Humidity (%) Winds ( mph kmh ) Pressure ( in mb ) Visibility ( mi km ) Precip ( " mm )
12:53 am 00:53 Mostly Cloudy 17 -8.3 14 -10 88 88 WSW 7 11 30.14 1021 10 16 0.00 0.00
1:53 am 01:53 Clear 15 -9.4 12 -11.1 88 88 SW 8 13 30.15 1021 10 16 0.00 0.00
2:53 am 02:53 Clear 14 -10 12 -11.1 92 92 W 5 7 30.16 1022 10 16 0.00 0.00
3:53 am 03:53 Clear 12 -11.1 10 -12.2 92 92 W 5 7 30.18 1022 10 16 0.00 0.00
4:53 am 04:53 Clear 12 -11.1 9 -12.8 87 87 WSW 7 11 30.18 1022 10 16 0.00 0.00
5:53 am 05:53 Clear 12 -11.1 9 -12.8 87 87 WSW 6 9 30.17 1022 10 16 0.00 0.00
6:53 am 06:53 Clear 13 -10.6 9 -12.8 84 84 SW 8 13 30.18 1022 10 16 0.00 0.00
7:53 am 07:53 Clear 12 -11.1 8 -13.3 84 84 WSW 7 11 30.18 1022 10 16 0.00 0.00
8:53 am 08:53 Sunny 15 -9.4 11 -11.7 84 84 W 5 7 30.18 1022 10 16 0.00 0.00
9:53 am 09:53 Sunny 19 -7.2 15 -9.4 84 84 SW 7 11 30.18 1022 10 16 0.00 0.00
10:53 am 10:53 Sunny 22 -5.6 18 -7.8 85 85 WSW 6 9 30.16 1022 10 16 0.00 0.00
11:53 am 11:53 Sunny 26 -3.3 20 -6.7 78 78 WSW 6 9 30.13 1020 10 16 0.00 0.00
12:53 pm 12:53 Sunny 32 0 26 -3.3 79 79 SW 10 17 30.08 1019 10 16 0.00 0.00
1:53 pm 13:53 Sunny 34 1.1 22 -5.6 61 61 SW 13 20 30.06 1018 10 16 0.00 0.00
2:53 pm 14:53 Sunny 34 1.1 21 -6.1 59 59 SW 14 22 30.06 1018 10 16 0.00 0.00
3:53 pm 15:53 Sunny 32 0 21 -6.1 64 64 SW 10 17 30.06 1018 10 16 0.00 0.00
4:53 pm 16:53 Clear 25 -3.9 19 -7.2 78 78 SSW 9 15 30.06 1018 10 16 0.00 0.00
5:53 pm 17:53 Clear 22 -5.6 16 -8.9 78 78 SW 9 15 30.05 1018 10 16 0.00 0.00
6:53 pm 18:53 Clear 25 -3.9 17 -8.3 72 72 SW 10 17 30.04 1017 10 16 0.00 0.00
7:53 pm 19:53 Clear 23 -5 16 -8.9 74 74 SW 13 20 30.03 1017 10 16 0.00 0.00
8:53 pm 20:53 Clear 27 -2.8 17 -8.3 66 66 SW 16 26 30.01 1016 10 16 0.00 0.00
9:53 pm 21:53 Clear 24 -4.4 16 -8.9 71 71 SW 18 30 30.00 1016 10 16 0.00 0.00
10:53 pm 22:53 Clear 26 -3.3 15 -9.4 63 63 SW 20 31 29.99 1016 10 16 0.00 0.00
11:53 pm 23:53 Clear 23 -5 15 -9.4 72 72 WSW 10 17 29.98 1015 10 16 0.00 0.00

Powered by AerisWeather